Location: Wildlife_Club
(35.6000°N, 81.4330°W)
Time: 12:25:23
(UTC-04:00)

A-11 Canister half - Pass Details

Date: 30 June 2019
Orbit: 1515 x 1685 km, 47.2° (Epoch: 15 July)

Event Time Altitude Azimuth Distance (km) Brightness Sun altitude
Rises 16:36:23 0° 303° (WNW) 4,817 12.1 47.8°
Reaches altitude 10° 16:39:35 10° 300° (WNW) 3,806 11.8 47.2°
Maximum altitude 16:48:58 61° 223° (SW) 1,730 10.6 45.3°
Drops below altitude 10° 16:58:03 10° 146° (SE) 3,682 10.9 43.4°
Sets 17:01:06 0° 143° (SE) 4,652 11.3 42.8°
